[[{"header":{"parameterUnit":"m.s-1","parameterCategory":2,"la1":30.2991,"la2":30.254,"lo1":-89.0895,"lo2":-89.0444,"dy":0.0017,"dx":0.0017,"nx":28,"ny":28,"refTime":"2023-10-20T21:00:00:Z","depth":"0","parameterNumber":2,"parameterNumberName":"U-component_of_CURRENTS"},"data":[0,0,0,0,0,0,0,0,0,0,0,0,0,0,0,0,0,0,0,0,0,0,0,0,0,0,0,0,0,0,0,0,0,0,0,0,0,0,0,0,0,0,0,0,0,0,0,0,0,0,0,0,0,0,0,0,0,0,0.4385,0.4386,0,0.4396,0.4396,0.4396,0.439,0.439,0.439,0.439,0.441,0.441,0.4411,0,0,0,0,0,0,0,0,0,0,0,0,0,0.4413,0.4412,0.4385,0.4386,0.4386,0.4396,0.4396,0.4396,0.439,0.439,0.439,0.439,0.4409,0.441,0.4411,0,0,0,0,0,0,0,0,0,0,0,0,0,0.4408,0.4412,0.4385,0.4386,0.4387,0.4396,0.4396,0.4396,0.439,0.439,0.439,0.439,0.4409,0.441,0.4411,0.4418,0,0,0.4413,0.4414,0,0,0,0,0,0,0,0,0.4408,0.4406,0.4386,0.4386,0.4387,0.4394,0.4413,0.4405,0.439,0.4387,0.439,0.439,0.4407,0.4408,0.4406,0.4419,0.442,0.4413,0.4414,0.4414,0.4415,0,0,0,0,0,0,0,0.4408,0.4406,0.4387,0.4386,0.4387,0.4405,0.4403,0.4411,0.4395,0.4387,0.4387,0.4392,0.4407,0.4406,0.4407,0.442,0.4413,0.4414,0.4415,0.4415,0.448,0.4481,0,0,0,0,0,0,0.4409,0.4406,0.4387,0.4388,0.44,0.4404,0.4402,0.439,0.4395,0.4396,0.4392,0.4392,0.4404,0.4406,0.4408,0.4484,0.4414,0.4415,0.4416,0.4479,0.448,0.4481,0,0,0,0,0,0,0.4409,0.4406,0.4387,0.44,0.4399,0.4403,0.439,0.439,0.4396,0.4399,0.44,0.4399,0.4404,0.4406,0.4434,0.4482,0.4416,0.4416,0.4477,0.4479,0.4481,0.4594,0,0,0,0,0,0,0.4409,0.4406,0.4407,0.44,0.4399,0.4425,0.439,0.439,0.44,0.4399,0.4405,0.4406,0.4404,0.4433,0.4435,0.4482,0.4417,0.4476,0.4478,0.448,0.4589,0.4599,0.4608,0,0,0,0,0,0.441,0.442,0.4407,0.4406,0.4396,0.4427,0.443,0.443,0.44,0.4428,0.4419,0.4407,0.4449,0.4435,0.4437,0.4486,0.4475,0.4477,0.448,0.4584,0.4597,0.4608,0,0,0,0,0,0,0.4433,0.442,0.4406,0.4409,0.443,0.4428,0.4452,0.4434,0.4446,0.4442,0.4424,0.4427,0.4473,0.4454,0.4439,0.4507,0.4459,0.4462,0.4537,0.4549,0.4559,0.464,0.4418,0,0,0,0,0,0.4437,0.4441,0.4438,0.4447,0.4457,0.4449,0.4459,0.446,0.4464,0.4468,0.4463,0.4461,0.4484,0.4495,0.4509,0.4543,0.4574,0.4572,0.4582,0.4591,0.4656,0.4723,0.4747,0.449,0.449,0.449,0,0,0.4447,0.4443,0.4444,0.4453,0.4461,0.4495,0.4456,0.4486,0.4518,0.4469,0.4507,0.4501,0.45,0.455,0.4567,0.4541,0.4675,0.4595,0.4603,0.4665,0.4729,0.4754,0.4777,0.4492,0.4492,0.4492,0,0,0.4481,0.4469,0.4487,0.4509,0.4533,0.454,0.4549,0.4553,0.4567,0.459,0.4576,0.4613,0.4601,0.4649,0.4659,0.4731,0.4727,0.4705,0.4827,0.4889,0.4912,0.4933,0.4993,0.5019,0.4708,0.4708,0.4708,0,0.4491,0.4507,0.4505,0.4537,0.4561,0.456,0.4598,0.4624,0.4636,0.467,0.4617,0.4673,0.4667,0.4774,0.4804,0.4765,0.4789,0.4782,0.4908,0.4929,0.4948,0.5005,0.5032,0.4714,0.4713,0.4713,0.4712,0,0.4535,0.456,0.4582,0.4615,0.465,0.4689,0.472,0.476,0.4749,0.477,0.4852,0.485,0.4895,0.4886,0.487,0.5011,0.498,0.4915,0.4888,0.4982,0.5034,0.506,0.4722,0.472,0.4719,0.4717,0,0,0.4502,0.4593,0.4594,0.4637,0.4691,0.4725,0.4804,0.4884,0.4949,0.4966,0.5055,0.5105,0.5113,0.5131,0.5119,0.5183,0.5327,0.5121,0.5121,0.5203,0.5474,0.5335,0.5349,0.5273,0.5279,0.5283,0.5452,0,0.453,0.4616,0.4644,0.4734,0.4787,0.483,0.4906,0.4985,0.5032,0.5125,0.5176,0.5247,0.5202,0.5228,0.5298,0.5328,0.5403,0.5289,0.5355,0.5359,0.5241,0.5377,0.5093,0.521,0.5477,0.5481,0.5484,0,0.4541,0.4608,0.4701,0.4816,0.4838,0.4891,0.5022,0.5093,0.5241,0.5277,0.5384,0.5414,0.5567,0.5466,0.5629,0.5553,0.5553,0.5555,0.5559,0.5425,0.5269,0.5159,0.5247,0.5137,0.5524,0.5521,0.5518,0,0.4527,0.4635,0.4717,0.4753,0.4885,0.4938,0.5006,0.5143,0.521,0.5399,0.5457,0.5622,0.5691,0.5756,0.5773,0.5716,0.5912,0.5811,0.5698,0.5687,0.5464,0.5424,0.5477,0.5936,0.5935,0.5935,0.5934,0,0.454,0.4604,0.4721,0.4769,0.4874,0.4953,0.5069,0.5169,0.5298,0.539,0.554,0.5629,0.5765,0.5865,0.5867,0.5883,0.5987,0.5791,0.5745,0.5488,0.545,0.5354,0.5307,0.5941,0.594,0.5939,0.5937,0,0.4523,0.4599,0.4701,0.4834,0.4875,0.4951,0.5068,0.5137,0.5284,0.541,0.5471,0.5678,0.5804,0.5902,0.6018,0.5978,0.5841,0.597,0.5665,0.5581,0.5331,0.5299,0.5172,0.5031,0.5904,0.5901,0.59,0,0.4535,0.4583,0.4723,0.476,0.4817,0.4924,0.4978,0.512,0.5179,0.5404,0.5448,0.5643,0.5722,0.5883,0.5846,0.5868,0.5729,0.5643,0.5483,0.5347,0.5281,0.5096,0.4974,0.5236,0.5229,0.5223,0.5218,0,0.4524,0.456,0.4626,0.4727,0.4785,0.4864,0.4948,0.4975,0.5131,0.5215,0.5332,0.5425,0.5572,0.5483,0.554,0.5513,0.5365,0.5521,0.5462,0.4867,0.4591,0.4418,0.511,0.5167,0.5172,0.5176,0.5178,0.5181,0.4466,0.4508,0.4572,0.4644,0.4712,0.4749,0.4711,0.4785,0.4829,0.4834,0.5066,0.5054,0.5134,0.5144,0.511,0.4926,0.496,0.4791,0.4803,0.466,0.4401,0.4992,0.4928,0.4932,0.4935,0.4938,0.494,0,0.4372,0.4402,0.447,0.4518,0.4496,0.4602,0.4621,0.4507,0.4427,0.4522,0.4532,0.4508,0.4427,0.4479,0.4407,0.427,0.4072,0.4185,0.3885,0.3831,0.4434,0.4279,0.3969,0.3969,0.3969,0.3969,0.3969,0.3969,0.4302,0.4296,0.4335,0.4263,0.4271,0.4151,0.4092,0.3977,0.3966,0.3814,0.3749,0.3812,0.4057,0.4082,0.3937,0.3837,0.36,0.3381,0.3479,0.3932,0.3989,0.4044,0.389,0.3503,0.3503,0.2655,0.2649,0.2645]},{"header":{"parameterUnit":"m.s-1","parameterCategory":2,"la1":30.2991,"la2":30.254,"lo1":-89.0895,"lo2":-89.0444,"dy":0.0017,"dx":0.0017,"nx":28,"ny":28,"refTime":"2023-10-20T21:00:00:Z","depth":"0","parameterNumber":3,"parameterNumberName":"V-component_of_CURRENTS"},"data":[0,0,0,0,0,0,0,0,0,0,0,0,0,0,0,0,0,0,0,0,0,0,0,0,0,0,0,0,0,0,0,0,0,0,0,0,0,0,0,0,0,0,0,0,0,0,0,0,0,0,0,0,0,0,0,0,0,0,0.0174,0.0174,0,0.0124,0.0124,0.0123,0.006,0.0059,0.0058,0.0057,-0.0066,-0.0069,-0.0071,0,0,0,0,0,0,0,0,0,0,0,0,0,0.0118,0.012,0.0174,0.0174,0.0173,0.0125,0.0124,0.0123,0.006,0.0059,0.0058,0.0057,-0.0065,-0.0068,-0.0071,0,0,0,0,0,0,0,0,0,0,0,0,0,0.0112,0.0121,0.0174,0.0137,0.0133,0.0125,0.0124,0.0123,0.006,0.0059,0.0057,0.0056,-0.0064,-0.0068,-0.0072,-0.0068,0,0,-0.0083,-0.0085,0,0,0,0,0,0,0,0,0.0112,0.0114,0.0143,0.014,0.0136,0.0098,0.0059,0.0056,0.006,0.0086,0.0057,0.0056,-0.0016,-0.0024,-0.0031,-0.0074,-0.0079,-0.0083,-0.0086,-0.0087,-0.0088,0,0,0,0,0,0,0,0.0113,0.0115,0.0153,0.0143,0.0138,0.009,0.0088,0.0058,0.0041,0.0084,0.008,0.0077,-0.0019,-0.0028,-0.0035,-0.0081,-0.0083,-0.0087,-0.0089,-0.009,-0.0139,-0.0138,0,0,0,0,0,0,0.0129,0.0116,0.0155,0.0152,0.0122,0.0093,0.009,0.011,0.0042,0.0032,0.0078,0.0074,-0.0021,-0.0031,-0.004,-0.0021,-0.0087,-0.0091,-0.0093,-0.014,-0.0138,-0.0137,0,0,0,0,0,0,0.0129,0.0134,0.0157,0.0132,0.0132,0.0096,0.0118,0.011,0.0106,0.0039,0.0026,0.0082,-0.0022,-0.0034,-0.0057,-0.0028,-0.0092,-0.0096,-0.0141,-0.0139,-0.0138,0.0003,0,0,0,0,0,0,0.0128,0.0135,0.0149,0.0135,0.0134,0.0171,0.0119,0.011,0.0106,0.0101,0.0039,0.0025,-0.0024,-0.0051,-0.0061,-0.0034,-0.0099,-0.0142,-0.014,-0.0138,-0.0003,0.0009,0.0019,0,0,0,0,0,0.0126,0.0157,0.015,0.0154,0.0157,0.0173,0.0169,0.0135,0.0108,0.0123,0.0074,0.0027,-0.0047,-0.0052,-0.0064,-0.0038,-0.0143,-0.0141,-0.0138,-0.0008,0.0007,0.0019,0,0,0,0,0,0,0.0132,0.0154,0.0145,0.0179,0.0184,0.0163,0.017,0.0149,0.0124,0.0113,0.0043,0.0028,0.0015,-0.003,-0.0034,-0.0049,-0.0104,-0.0104,-0.0001,0.0012,0.0023,0.0053,-0.0102,0,0,0,0,0,0.0145,0.0178,0.0183,0.021,0.022,0.0198,0.0197,0.0182,0.0159,0.0147,0.01,0.005,0.0015,0.0001,-0.0042,-0.004,-0.0074,-0.0035,-0.0023,-0.0013,0.0002,-0.0014,-0.0003,-0.013,-0.013,-0.0131,0,0,0.0148,0.0168,0.0181,0.0213,0.0213,0.024,0.0195,0.0212,0.0226,0.0137,0.0136,0.0085,0.0022,0.0017,0.0008,-0.0015,0.0005,-0.0011,-0.0002,0.0008,-0.0011,0.0002,0.0013,-0.0129,-0.0129,-0.013,0,0,0.0184,0.0202,0.0242,0.0261,0.028,0.0274,0.0287,0.0279,0.0272,0.027,0.0206,0.0182,0.0125,0.0097,0.0072,0.0121,0.0059,0.0099,0.0189,0.0174,0.0185,0.0194,0.0174,0.018,0.0112,0.0113,0.0113,0,0.0184,0.0243,0.0252,0.0299,0.0318,0.0298,0.034,0.0338,0.0319,0.0321,0.0284,0.0221,0.0168,0.0171,0.0185,0.0149,0.0125,0.0148,0.0191,0.0199,0.0206,0.0183,0.0188,0.0119,0.0119,0.0118,0.0117,0,0.0252,0.0296,0.0326,0.0381,0.0403,0.044,0.0447,0.0458,0.0439,0.0426,0.0423,0.036,0.0325,0.0306,0.0259,0.0287,0.0249,0.0205,0.0166,0.0228,0.0199,0.0202,0.013,0.0127,0.0125,0.0123,0,0,0.0268,0.0355,0.0366,0.041,0.0453,0.0484,0.052,0.0551,0.0582,0.0552,0.0587,0.0529,0.0496,0.0466,0.0412,0.0403,0.0429,0.0337,0.0333,0.0333,0.0397,0.0343,0.034,0.0395,0.0396,0.0397,0.0359,0,0.0318,0.042,0.0446,0.0533,0.0588,0.0594,0.0637,0.0659,0.0658,0.0687,0.0642,0.0646,0.0559,0.0557,0.0535,0.0464,0.0442,0.0443,0.0322,0.0319,0.0276,0.0344,0.0333,0.0296,0.0362,0.0362,0.0362,0,0.0386,0.0446,0.0541,0.0633,0.0658,0.0699,0.0769,0.0808,0.0837,0.084,0.0836,0.0794,0.0792,0.0702,0.0622,0.0629,0.0524,0.0455,0.0451,0.0356,0.0271,0.024,0.0298,0.0086,0.0366,0.0365,0.0365,0,0.0419,0.052,0.0599,0.063,0.072,0.076,0.0805,0.085,0.0915,0.0948,0.1001,0.0951,0.0972,0.0844,0.0704,0.0667,0.0608,0.0532,0.0377,0.0372,0.0315,0.0303,0.0167,0.0455,0.0456,0.0456,0.0456,0,0.0483,0.055,0.0622,0.0672,0.0776,0.0815,0.0923,0.096,0.104,0.1162,0.1092,0.1182,0.1012,0.0954,0.0773,0.061,0.0657,0.0413,0.0368,0.0362,0.0355,0.0126,0.0019,0.0454,0.0455,0.0455,0.0455,0,0.053,0.0572,0.0675,0.0767,0.0803,0.0883,0.1023,0.111,0.1171,0.1332,0.1363,0.1381,0.1321,0.1117,0.0936,0.073,0.0427,0.046,0.0465,0.0421,0.0054,-0.0044,-0.0226,-0.0309,0.0288,0.0287,0.0286,0,0.0576,0.0629,0.0746,0.082,0.0869,0.0985,0.1083,0.117,0.1293,0.1478,0.1586,0.1575,0.1611,0.1313,0.0947,0.0615,0.0409,0.0358,0.0269,0.0053,-0.009,-0.0171,-0.0233,0.025,0.0248,0.0247,0.0246,0,0.0657,0.0686,0.0766,0.0917,0.1027,0.1165,0.1319,0.1436,0.1588,0.1739,0.1945,0.1985,0.1713,0.1396,0.0915,0.067,0.0209,0.0321,0.0105,-0.0116,-0.0219,-0.0325,0.0247,0.0236,0.0237,0.0238,0.0239,0.0239,0.0718,0.0783,0.0888,0.1034,0.1173,0.1361,0.1493,0.1678,0.1904,0.2154,0.2189,0.228,0.179,0.1148,0.0789,0.0105,0.0117,-0.0126,-0.0221,-0.0279,-0.0381,0.0167,0.0095,0.0095,0.0095,0.0095,0.0096,0,0.0804,0.0875,0.101,0.1195,0.137,0.1421,0.1672,0.1824,0.2108,0.2307,0.2466,0.2278,0.1663,0.104,0.0121,-0.036,-0.051,-0.0607,-0.0726,-0.0758,-0.0265,-0.029,-0.0457,-0.0456,-0.0456,-0.0456,-0.0456,-0.0456,0.0863,0.0981,0.1044,0.1333,0.1474,0.1705,0.1851,0.2083,0.2267,0.2501,0.2553,0.2556,0.2085,0.0484,-0.0608,-0.0849,-0.1129,-0.1221,-0.1349,-0.1032,-0.0995,-0.0959,-0.1009,-0.1324,-0.1325,-0.1795,-0.18,-0.1804]}],[{"header":{"parameterUnit":"m.s-1","parameterCategory":2,"la1":30.2991,"la2":30.254,"lo1":-89.0895,"lo2":-89.0444,"dy":0.0017,"dx":0.0017,"nx":28,"ny":28,"refTime":"2023-10-20T21:00:00:Z","depth":"2","parameterNumber":2,"parameterNumberName":"U-component_of_CURRENTS"},"data":[0,0,0,0,0,0,0,0,0,0,0,0,0,0,0,0,0,0,0,0,0,0,0,0,0,0,0,0,0,0,0,0,0,0,0,0,0,0,0,0,0,0,0,0,0,0,0,0,0,0,0,0,0,0,0,0,0,0,0.3226,0.3227,0,0.3313,0.3314,0.3315,0.3342,0.3342,0.3341,0.3341,0.3358,0.3359,0.336,0,0,0,0,0,0,0,0,0,0,0,0,0,0.3187,0.3187,0.3226,0.3227,0.3228,0.3312,0.3314,0.3315,0.3342,0.3342,0.3341,0.334,0.3358,0.3359,0.336,0,0,0,0,0,0,0,0,0,0,0,0,0,0.3232,0.3187,0.3226,0.3251,0.3254,0.3312,0.3314,0.3315,0.3342,0.3342,0.3341,0.334,0.3357,0.3359,0.336,0.3383,0,0,0.3364,0.3365,0,0,0,0,0,0,0,0,0.323,0.3234,0.3246,0.3249,0.3253,0.3315,0.3307,0.3334,0.3342,0.331,0.3341,0.334,0.3337,0.334,0.336,0.3384,0.3385,0.3364,0.3365,0.3366,0.3366,0,0,0,0,0,0,0,0.3226,0.3231,0.3261,0.3247,0.3251,0.3293,0.3298,0.3313,0.3326,0.3313,0.3314,0.3323,0.3338,0.3359,0.3361,0.3385,0.3364,0.3365,0.3366,0.3367,0.3452,0.3453,0,0,0,0,0,0,0.3209,0.3227,0.3258,0.3264,0.3238,0.3294,0.33,0.3296,0.3327,0.3332,0.3324,0.3324,0.3357,0.3359,0.3361,0.3422,0.3366,0.3367,0.3368,0.345,0.3452,0.3454,0,0,0,0,0,0,0.3208,0.3211,0.3255,0.3248,0.3256,0.3295,0.3292,0.3299,0.3334,0.3336,0.3339,0.3353,0.3356,0.3359,0.3361,0.3421,0.3367,0.3369,0.3449,0.3451,0.3453,0.3522,0,0,0,0,0,0,0.3206,0.3209,0.3226,0.3246,0.3256,0.3306,0.3293,0.3301,0.3339,0.3341,0.3362,0.3363,0.3356,0.3359,0.3362,0.3422,0.337,0.3447,0.345,0.3452,0.3518,0.3526,0.3533,0,0,0,0,0,0.3204,0.3221,0.3226,0.3231,0.3268,0.3308,0.3318,0.3344,0.3341,0.3371,0.3356,0.3363,0.338,0.336,0.3364,0.3426,0.3446,0.3449,0.3452,0.3514,0.3525,0.3533,0,0,0,0,0,0,0.3213,0.3226,0.3232,0.3252,0.3286,0.3312,0.3348,0.3357,0.3375,0.3375,0.3363,0.3363,0.3403,0.3392,0.337,0.3458,0.3423,0.3427,0.3469,0.3478,0.3486,0.3534,0.3371,0,0,0,0,0,0.3222,0.3235,0.3259,0.3278,0.3299,0.3327,0.3354,0.3369,0.3378,0.3389,0.3395,0.3402,0.3421,0.3426,0.3446,0.3475,0.35,0.3522,0.353,0.3537,0.3579,0.3654,0.3673,0.3464,0.3464,0.3464,0,0,0.3228,0.3239,0.3247,0.3282,0.3311,0.3351,0.3343,0.3389,0.3415,0.3385,0.3424,0.3436,0.3435,0.3476,0.3495,0.3471,0.3602,0.3541,0.3546,0.3586,0.366,0.368,0.3699,0.3467,0.3466,0.3466,0,0,0.324,0.3262,0.328,0.3317,0.3364,0.3387,0.3402,0.3442,0.3458,0.3483,0.3481,0.3517,0.3529,0.3557,0.3564,0.3625,0.3648,0.3638,0.3711,0.3783,0.3802,0.3819,0.3849,0.3868,0.3633,0.3633,0.3633,0,0.325,0.3272,0.3297,0.3333,0.3361,0.3402,0.3434,0.3469,0.3501,0.3524,0.35,0.3565,0.3576,0.3632,0.367,0.365,0.3681,0.3672,0.3796,0.3814,0.383,0.3857,0.3877,0.3637,0.3636,0.3636,0.3636,0,0.3273,0.3311,0.3332,0.3382,0.3417,0.3462,0.35,0.3553,0.357,0.3599,0.366,0.3664,0.3706,0.3725,0.3722,0.3849,0.3829,0.3804,0.3777,0.3856,0.3878,0.3898,0.3642,0.3641,0.364,0.3639,0,0,0.3249,0.3327,0.3341,0.3375,0.3447,0.3477,0.3541,0.3609,0.3652,0.3701,0.3762,0.3816,0.3842,0.3856,0.3861,0.3939,0.4078,0.3941,0.3943,0.3979,0.4227,0.4105,0.4114,0.4083,0.4088,0.4091,0.4186,0,0.3265,0.3324,0.3358,0.3431,0.347,0.3534,0.3582,0.3653,0.3694,0.3777,0.3829,0.3903,0.3877,0.3924,0.3991,0.4082,0.4141,0.4054,0.4141,0.4143,0.4032,0.4137,0.3812,0.3862,0.4206,0.4209,0.4211,0,0.3286,0.3321,0.3376,0.3455,0.3476,0.3539,0.363,0.3671,0.3798,0.3839,0.3922,0.3976,0.4123,0.4083,0.4241,0.4193,0.4234,0.4276,0.4279,0.4167,0.406,0.3845,0.3885,0.4244,0.4242,0.4239,0.4237,0,0.3258,0.3343,0.3381,0.3413,0.3504,0.3562,0.3621,0.3715,0.3775,0.3924,0.3998,0.4113,0.4218,0.4298,0.4394,0.4349,0.4561,0.4481,0.4385,0.4373,0.4118,0.4077,0.4595,0.4595,0.4595,0.4595,0.4594,0,0.326,0.3308,0.3392,0.3425,0.3494,0.3556,0.3645,0.3717,0.3855,0.3942,0.404,0.4137,0.4298,0.4419,0.4457,0.4496,0.4597,0.4442,0.4415,0.4126,0.4086,0.4434,0.4414,0.4598,0.4597,0.4597,0.4596,0,0.3252,0.3289,0.3342,0.344,0.3491,0.3537,0.3699,0.3747,0.3878,0.4005,0.409,0.426,0.4385,0.4474,0.4637,0.4572,0.463,0.4606,0.4244,0.4173,0.4365,0.4347,0.4496,0.4493,0.449,0.4488,0.4486,0,0.3255,0.3274,0.3368,0.3379,0.3442,0.3546,0.3607,0.3761,0.3812,0.4051,0.4098,0.4312,0.4362,0.451,0.4504,0.4513,0.4596,0.4202,0.4048,0.441,0.4368,0.4354,0.434,0.3721,0.3713,0.3707,0.3702,0,0.321,0.324,0.3267,0.335,0.3401,0.3478,0.3591,0.3642,0.3798,0.3897,0.4021,0.4119,0.4257,0.4136,0.4183,0.4142,0.4171,0.4066,0.4587,0.3791,0.3686,0.3642,0.3653,0.3644,0.365,0.3654,0.3657,0.3659,0.3172,0.317,0.3205,0.3268,0.3312,0.3358,0.3357,0.3446,0.3509,0.3579,0.3803,0.3799,0.3884,0.3757,0.3663,0.3598,0.3854,0.3673,0.3691,0.3716,0.3605,0.35,0.3401,0.3405,0.3409,0.3412,0.3415,0,0.3098,0.3115,0.3129,0.3139,0.3127,0.3248,0.3284,0.3208,0.3156,0.3304,0.3364,0.3157,0.3094,0.3169,0.2982,0.2978,0.293,0.285,0.2758,0.2819,0.2873,0.2715,0.2277,0.2273,0.2269,0.2266,0,0,0.3047,0.3017,0.301,0.2928,0.2968,0.2881,0.2856,0.277,0.2784,0.2714,0.2723,0.2972,0.3097,0.2653,0.2595,0.24,0.2582,0.2308,0.3232,0.3187,0.3235,0.3373,0.3203,0,0,0,0,0]},{"header":{"parameterUnit":"m.s-1","parameterCategory":2,"la1":30.2991,"la2":30.254,"lo1":-89.0895,"lo2":-89.0444,"dy":0.0017,"dx":0.0017,"nx":28,"ny":28,"refTime":"2023-10-20T21:00:00:Z","depth":"2","parameterNumber":3,"parameterNumberName":"V-component_of_CURRENTS"},"data":[0,0,0,0,0,0,0,0,0,0,0,0,0,0,0,0,0,0,0,0,0,0,0,0,0,0,0,0,0,0,0,0,0,0,0,0,0,0,0,0,0,0,0,0,0,0,0,0,0,0,0,0,0,0,0,0,0,0,0.0228,0.0227,0,0.0181,0.018,0.018,0.0141,0.0141,0.0141,0.014,0.0041,0.0039,0.0037,0,0,0,0,0,0,0,0,0,0,0,0,0,0.0199,0.02,0.0228,0.0227,0.0227,0.0181,0.018,0.018,0.0141,0.0141,0.014,0.014,0.0042,0.0039,0.0036,0,0,0,0,0,0,0,0,0,0,0,0,0,0.0188,0.0201,0.0228,0.0202,0.0199,0.0181,0.018,0.018,0.0141,0.0141,0.014,0.014,0.0043,0.0039,0.0036,0.0027,0,0,0.0026,0.0024,0,0,0,0,0,0,0,0,0.0189,0.0189,0.0206,0.0204,0.0201,0.0166,0.0134,0.0126,0.0142,0.0163,0.014,0.0139,0.0079,0.0072,0.0065,0.0022,0.0018,0.0025,0.0023,0.0022,0.0021,0,0,0,0,0,0,0,0.019,0.019,0.0209,0.0206,0.0202,0.0164,0.0162,0.0132,0.0124,0.0161,0.0158,0.0154,0.0077,0.0069,0.0063,0.0017,0.0025,0.0022,0.002,0.0019,-0.0047,-0.0047,0,0,0,0,0,0,0.0201,0.0192,0.0211,0.0208,0.0193,0.0165,0.0163,0.0178,0.0125,0.0117,0.0154,0.0152,0.0075,0.0067,0.0059,0.0053,0.0022,0.0019,0.0017,-0.0047,-0.0047,-0.0047,0,0,0,0,0,0,0.0201,0.0204,0.0213,0.0197,0.0196,0.0167,0.0183,0.0177,0.0172,0.012,0.0111,0.0155,0.0074,0.0064,0.0041,0.0048,0.0017,0.0014,-0.0048,-0.0047,-0.0047,0.0035,0,0,0,0,0,0,0.0201,0.0205,0.0215,0.0199,0.0197,0.0213,0.0183,0.0177,0.017,0.0167,0.0118,0.0108,0.0073,0.0047,0.0038,0.0043,0.0011,-0.0048,-0.0047,-0.0047,0.0032,0.0038,0.0044,0,0,0,0,0,0.02,0.0221,0.0216,0.0218,0.0214,0.0214,0.021,0.0186,0.0171,0.0177,0.0143,0.011,0.0043,0.0045,0.0034,0.0038,-0.0048,-0.0048,-0.0047,0.003,0.0037,0.0044,0,0,0,0,0,0,0.0208,0.0218,0.0213,0.0234,0.0229,0.0208,0.0209,0.0193,0.0172,0.0169,0.0117,0.0106,0.0085,0.0052,0.0055,0.002,-0.001,-0.0011,0.0052,0.0058,0.0064,0.0097,0.0009,0,0,0,0,0,0.0217,0.024,0.0235,0.0251,0.0254,0.0233,0.0228,0.0217,0.0197,0.0188,0.0152,0.0112,0.008,0.0063,0.0029,0.0015,-0.0018,0.0009,0.0014,0.002,0.0039,-0.0001,0.0004,-0.0045,-0.0045,-0.0045,0,0,0.0221,0.0231,0.0241,0.0254,0.0248,0.0263,0.0229,0.0234,0.0242,0.0179,0.0174,0.0131,0.008,0.0063,0.0051,0.0037,0.0012,0.0021,0.0026,0.0042,0.0,0.0005,0.0009,-0.0044,-0.0044,-0.0044,0,0,0.025,0.0256,0.0287,0.0292,0.0297,0.0286,0.0292,0.0279,0.027,0.0261,0.0215,0.0185,0.0135,0.0105,0.0081,0.0099,0.0044,0.0079,0.0137,0.0099,0.0103,0.0106,0.0059,0.0058,0.0084,0.0084,0.0084,0,0.0255,0.03,0.0292,0.0324,0.0336,0.0303,0.0338,0.0322,0.03,0.03,0.027,0.0204,0.0158,0.014,0.0145,0.0113,0.008,0.0117,0.0108,0.0111,0.0112,0.0064,0.0061,0.0088,0.0087,0.0087,0.0087,0,0.0312,0.0343,0.0362,0.0397,0.0405,0.0429,0.0415,0.0417,0.0395,0.0375,0.0352,0.0287,0.0253,0.0224,0.0191,0.0181,0.0149,0.012,0.0096,0.0123,0.0069,0.0065,0.0094,0.0092,0.0091,0.009,0,0,0.034,0.0396,0.0403,0.0442,0.0453,0.0474,0.0486,0.0498,0.0521,0.0466,0.0484,0.0409,0.0371,0.0342,0.0285,0.025,0.0224,0.0201,0.0197,0.0166,0.0134,0.0098,0.0088,0.0194,0.0194,0.0194,0.0088,0,0.0391,0.0477,0.0483,0.0555,0.06,0.0586,0.0609,0.0608,0.0589,0.0593,0.0514,0.0504,0.0414,0.0409,0.0354,0.0271,0.0219,0.0256,0.0105,0.01,0.0073,0.0085,0.0122,0.003,0.0083,0.0083,0.0082,0,0.0454,0.0505,0.0594,0.0666,0.0685,0.0717,0.0766,0.0782,0.0764,0.0753,0.0709,0.0645,0.0587,0.051,0.0359,0.0388,0.0272,0.0189,0.0182,0.0122,0.0057,0.0012,0.0019,0.0074,0.0075,0.0075,0.0076,0,0.0508,0.0588,0.067,0.0693,0.0756,0.0798,0.0828,0.0834,0.0877,0.0861,0.089,0.0777,0.0753,0.0594,0.0406,0.039,0.0237,0.0188,0.0033,0.0028,0.0019,0.0014,0.0074,0.0074,0.0074,0.0075,0.0075,0,0.0578,0.0641,0.0709,0.0758,0.0865,0.0875,0.0974,0.0989,0.1021,0.1093,0.0982,0.1009,0.0778,0.0654,0.0456,0.0238,0.0263,0.0052,0.0005,0.0046,0.0044,0.0053,0.0052,0.007,0.0071,0.0072,0.0073,0,0.0633,0.0675,0.078,0.0865,0.0903,0.0982,0.1092,0.1157,0.1179,0.1271,0.1281,0.1193,0.1035,0.0776,0.0524,0.0324,0.0108,0.0015,0.0073,0.0035,-0.0092,-0.0088,-0.016,-0.0162,-0.0164,-0.0166,-0.0167,0,0.068,0.0734,0.0863,0.0942,0.0991,0.1103,0.1185,0.1238,0.1319,0.1392,0.145,0.1332,0.1254,0.0855,0.0496,0.0134,0.0085,-0.0074,-0.0104,-0.0074,-0.0113,-0.0106,-0.01,-0.0095,-0.0096,-0.0096,-0.0097,0,0.0749,0.0789,0.0874,0.1037,0.1149,0.1281,0.1404,0.149,0.1566,0.1635,0.1694,0.1638,0.128,0.0922,0.0434,0.0195,-0.0014,-0.0096,-0.0069,-0.0038,-0.002,-0.0056,-0.0051,-0.01,-0.01,-0.01,-0.01,-0.0099,0.0797,0.0871,0.0983,0.114,0.1275,0.1441,0.1549,0.1662,0.1794,0.1889,0.185,0.1767,0.1396,0.0764,0.036,-0.0058,-0.0043,-0.0197,-0.0192,-0.0188,-0.0158,-0.0143,-0.0242,-0.0242,-0.0243,-0.0243,-0.0243,0,0.0862,0.0939,0.108,0.1267,0.1414,0.1484,0.1681,0.1763,0.1899,0.1974,0.1986,0.1632,0.1246,0.0816,0.0199,-0.0172,-0.0189,-0.0292,-0.0226,-0.0219,-0.0214,-0.0183,-0.0276,-0.0277,-0.0278,-0.0279,0,0,0.0902,0.1024,0.1096,0.1342,0.1475,0.1658,0.177,0.1879,0.1961,0.1996,0.1956,0.1868,0.1371,0.0918,0.0424,0.0072,0.0008,-0.0,0.0067,0.021,0.022,-0.0119,-0.0058,0,0,0,0,0]}],[{"header":{"parameterUnit":"m.s-1","parameterCategory":2,"la1":30.2991,"la2":30.254,"lo1":-89.0895,"lo2":-89.0444,"dy":0.0017,"dx":0.0017,"nx":28,"ny":28,"refTime":"2023-10-20T21:00:00:Z","depth":"4","parameterNumber":2,"parameterNumberName":"U-component_of_CURRENTS"},"data":[0,0,0,0,0,0,0,0,0,0,0,0,0,0,0,0,0,0,0,0,0,0,0,0,0,0,0,0,0,0,0,0,0,0,0,0,0,0,0,0,0,0,0,0,0,0,0,0,0,0,0,0,0,0,0,0,0,0,0.1752,0.1754,0,0.1862,0.1863,0.1864,0.1938,0.1939,0.194,0.194,0.2035,0.2036,0.2038,0,0,0,0,0,0,0,0,0,0,0,0,0,0.1632,0.1633,0.1752,0.1754,0.1756,0.1862,0.1863,0.1864,0.1937,0.1939,0.194,0.1941,0.2034,0.2036,0.2038,0,0,0,0,0,0,0,0,0,0,0,0,0,0.1702,0.1634,0.1752,0.1809,0.1815,0.1862,0.1863,0.1865,0.1937,0.1939,0.194,0.1941,0.2034,0.2036,0.2038,0.2024,0,0,0.2046,0.2047,0,0,0,0,0,0,0,0,0.1698,0.1706,0.1798,0.1805,0.1812,0.1892,0.1856,0.1919,0.1937,0.1885,0.1941,0.1942,0.1988,0.1994,0.2005,0.2028,0.2032,0.2046,0.2047,0.2048,0.2049,0,0,0,0,0,0,0,0.1693,0.1702,0.179,0.18,0.1809,0.1839,0.185,0.1868,0.1923,0.189,0.1897,0.1917,0.1991,0.2002,0.2007,0.2034,0.2046,0.2048,0.2049,0.205,0.2176,0.2178,0,0,0,0,0,0,0.1687,0.1697,0.1787,0.1794,0.1764,0.184,0.1852,0.1861,0.1923,0.1936,0.1916,0.192,0.1997,0.2004,0.2011,0.2109,0.2048,0.2051,0.2052,0.2174,0.2176,0.2178,0,0,0,0,0,0,0.1684,0.1693,0.1783,0.1753,0.1767,0.1841,0.185,0.1862,0.1916,0.1944,0.1955,0.1962,0.1999,0.2008,0.2065,0.2109,0.2052,0.2054,0.2172,0.2175,0.2177,0.2233,0,0,0,0,0,0,0.168,0.1691,0.172,0.1752,0.1769,0.1836,0.185,0.1864,0.1926,0.1934,0.1987,0.1995,0.2,0.2062,0.2068,0.2111,0.2056,0.2169,0.2173,0.2176,0.2229,0.2237,0.2244,0,0,0,0,0,0.1675,0.1698,0.172,0.1733,0.1797,0.1838,0.1849,0.1903,0.1927,0.1955,0.1994,0.1995,0.2089,0.2065,0.2071,0.2117,0.2168,0.2172,0.2176,0.2225,0.2235,0.2244,0,0,0,0,0,0,0.166,0.1709,0.1734,0.1772,0.1817,0.1853,0.1894,0.1923,0.1975,0.2,0.2014,0.2024,0.2097,0.2095,0.2069,0.2164,0.213,0.2136,0.2165,0.2175,0.2183,0.2205,0.2058,0,0,0,0,0,0.1669,0.1703,0.1748,0.1783,0.1809,0.1857,0.1891,0.193,0.1971,0.1998,0.2036,0.2076,0.2111,0.2135,0.2169,0.2211,0.2225,0.2247,0.2255,0.2261,0.2285,0.2333,0.2348,0.2192,0.2192,0.2192,0,0,0.1675,0.1708,0.173,0.1785,0.1825,0.1863,0.1881,0.1946,0.1989,0.1998,0.2079,0.2113,0.2132,0.219,0.2221,0.2198,0.2313,0.2267,0.2272,0.2293,0.2339,0.2354,0.2368,0.2195,0.2195,0.2194,0,0,0.1688,0.1732,0.1762,0.1803,0.1877,0.1902,0.1928,0.1993,0.2038,0.2105,0.2131,0.2195,0.2241,0.2272,0.2285,0.2356,0.236,0.2369,0.2422,0.2468,0.2481,0.2493,0.2526,0.254,0.2365,0.2365,0.2365,0,0.1704,0.1735,0.178,0.182,0.1859,0.1919,0.1958,0.2006,0.2088,0.2133,0.2144,0.2255,0.228,0.2342,0.238,0.2376,0.2399,0.2379,0.2478,0.249,0.2501,0.2533,0.2548,0.2368,0.2368,0.2367,0.2367,0,0.1725,0.1771,0.1793,0.1857,0.1904,0.1952,0.2017,0.2085,0.2145,0.2195,0.2299,0.2338,0.2403,0.2422,0.2427,0.2522,0.2513,0.2487,0.2451,0.252,0.2549,0.2564,0.2373,0.2371,0.2371,0.237,0,0,0.1713,0.1791,0.1806,0.184,0.1932,0.1965,0.2049,0.2131,0.2201,0.2288,0.237,0.2451,0.2499,0.252,0.2539,0.2588,0.2691,0.2585,0.2586,0.2615,0.2798,0.2629,0.2628,0.2685,0.2688,0.269,0.2784,0,0.1724,0.1777,0.1825,0.1892,0.1924,0.2009,0.2078,0.2174,0.2256,0.2355,0.2426,0.2515,0.2522,0.2574,0.2626,0.2693,0.2735,0.2668,0.2731,0.2733,0.2571,0.2641,0.27,0.2795,0.2798,0.2801,0.2802,0,0.1731,0.1765,0.1818,0.1908,0.1935,0.1997,0.2123,0.2201,0.2348,0.2417,0.2519,0.2579,0.2698,0.2675,0.2814,0.2776,0.2804,0.2831,0.2834,0.2671,0.2591,0.2714,0.2829,0.2827,0.2825,0.2823,0.2822,0,0.1676,0.1765,0.18,0.1832,0.1942,0.2009,0.2093,0.2238,0.2326,0.248,0.2561,0.2675,0.2773,0.2828,0.2908,0.2878,0.3036,0.2983,0.2846,0.2834,0.2933,0.2919,0.306,0.306,0.306,0.306,0.306,0,0.1647,0.1689,0.1789,0.1809,0.1888,0.1997,0.2111,0.2213,0.2381,0.249,0.2606,0.2695,0.2827,0.2923,0.2947,0.2955,0.3066,0.2879,0.2854,0.2952,0.294,0.2942,0.2927,0.3063,0.3063,0.3062,0.3061,0,0.1582,0.1642,0.1696,0.1815,0.1861,0.1934,0.2118,0.2201,0.2378,0.2523,0.2585,0.2772,0.2898,0.2982,0.3095,0.3004,0.3019,0.2981,0.3104,0.3081,0.2773,0.276,0.283,0.2825,0.2821,0.2818,0.2815,0,0.1537,0.1559,0.1678,0.1719,0.1783,0.1905,0.1986,0.2177,0.2277,0.2545,0.2606,0.2799,0.2892,0.2916,0.3009,0.3022,0.2979,0.2945,0.2838,0.2785,0.2754,0.2748,0.2741,0.2808,0.2807,0.2806,0.2804,0,0.1456,0.1522,0.1564,0.1649,0.1735,0.1802,0.1951,0.2015,0.2248,0.2423,0.2562,0.2626,0.2762,0.2828,0.2862,0.2859,0.2943,0.2899,0.2906,0.2806,0.2758,0.273,0.2728,0.279,0.2792,0.2793,0.2794,0,0.1406,0.142,0.1493,0.1564,0.1651,0.1689,0.1772,0.1903,0.2025,0.2337,0.2381,0.2575,0.2757,0.2747,0.2781,0.2768,0.2712,0.2586,0.2608,0.2626,0.2511,0.2417,0.2341,0,0,0,0,0,0.1333,0.1352,0.1403,0.1462,0.1543,0.1598,0.1742,0.1841,0.2076,0.2119,0.2251,0.2361,0.2438,0.2539,0.2483,0.2671,0.2706,0.259,0.2568,0.2707,0.2725,0.2606,0,0,0,0,0,0,0.1298,0.1339,0.1362,0.1361,0.1395,0.1462,0.1547,0.1695,0.1741,0.1988,0.205,0.2215,0.2329,0.2461,0.2444,0.2469,0.24,0.2714,0.2707,0.2698,0.2713,0.2727,0.2611,0,0,0,0,0]},{"header":{"parameterUnit":"m.s-1","parameterCategory":2,"la1":30.2991,"la2":30.254,"lo1":-89.0895,"lo2":-89.0444,"dy":0.0017,"dx":0.0017,"nx":28,"ny":28,"refTime":"2023-10-20T21:00:00:Z","depth":"4","parameterNumber":3,"parameterNumberName":"V-component_of_CURRENTS"},"data":[0,0,0,0,0,0,0,0,0,0,0,0,0,0,0,0,0,0,0,0,0,0,0,0,0,0,0,0,0,0,0,0,0,0,0,0,0,0,0,0,0,0,0,0,0,0,0,0,0,0,0,0,0,0,0,0,0,0,0.0209,0.0208,0,0.0183,0.0183,0.0183,0.0175,0.0175,0.0175,0.0175,0.0118,0.0117,0.0115,0,0,0,0,0,0,0,0,0,0,0,0,0,0.02,0.02,0.0209,0.0208,0.0208,0.0183,0.0183,0.0183,0.0175,0.0175,0.0175,0.0175,0.0119,0.0117,0.0115,0,0,0,0,0,0,0,0,0,0,0,0,0,0.0193,0.02,0.0209,0.02,0.0199,0.0183,0.0183,0.0183,0.0175,0.0175,0.0175,0.0175,0.0119,0.0117,0.0115,0.01,0,0,0.0108,0.0107,0,0,0,0,0,0,0,0,0.0193,0.0193,0.0202,0.0201,0.0199,0.0181,0.0159,0.0153,0.0175,0.0185,0.0175,0.0175,0.0136,0.0132,0.0129,0.0097,0.0095,0.0108,0.0106,0.0105,0.0105,0,0,0,0,0,0,0,0.0194,0.0194,0.02,0.0201,0.02,0.018,0.018,0.0158,0.0161,0.0184,0.0183,0.0179,0.0135,0.0131,0.0128,0.0094,0.0108,0.0106,0.0104,0.0103,0.0046,0.0046,0,0,0,0,0,0,0.0198,0.0195,0.02,0.0199,0.0195,0.018,0.018,0.0188,0.0162,0.0158,0.0179,0.0179,0.0135,0.013,0.0126,0.0111,0.0105,0.0103,0.0102,0.0046,0.0046,0.0046,0,0,0,0,0,0,0.0198,0.0199,0.0201,0.0194,0.0193,0.0181,0.0189,0.0187,0.0188,0.0158,0.0153,0.0182,0.0135,0.0129,0.0112,0.0108,0.0102,0.01,0.0046,0.0046,0.0046,0.0078,0,0,0,0,0,0,0.0198,0.02,0.0207,0.0195,0.0194,0.0198,0.0189,0.0187,0.0184,0.0184,0.0159,0.0153,0.0135,0.0116,0.011,0.0105,0.0098,0.0047,0.0046,0.0046,0.0077,0.0079,0.008,0,0,0,0,0,0.0198,0.0209,0.0208,0.0208,0.0205,0.0198,0.0196,0.0187,0.0184,0.0187,0.0171,0.0154,0.011,0.0114,0.0107,0.0101,0.0047,0.0046,0.0046,0.0076,0.0079,0.008,0,0,0,0,0,0,0.0207,0.0208,0.0208,0.0218,0.0211,0.0197,0.0197,0.0191,0.0181,0.0182,0.0154,0.0148,0.013,0.0112,0.0117,0.0084,0.0074,0.0073,0.01,0.0101,0.0103,0.0131,0.0096,0,0,0,0,0,0.0213,0.0225,0.0217,0.0225,0.0223,0.0211,0.0207,0.0204,0.0192,0.0188,0.0169,0.0146,0.0122,0.0111,0.0089,0.0072,0.0043,0.0063,0.0065,0.0066,0.0084,0.0028,0.0027,0.0045,0.0045,0.0045,0,0,0.0218,0.022,0.0226,0.0228,0.0222,0.0229,0.021,0.0211,0.0217,0.0182,0.0182,0.0152,0.0119,0.0101,0.0091,0.0087,0.0043,0.0066,0.0068,0.0085,0.0028,0.0026,0.0025,0.0045,0.0045,0.0045,0,0,0.0238,0.0237,0.0256,0.0254,0.0251,0.0243,0.0246,0.0236,0.0231,0.0224,0.0198,0.017,0.0139,0.0113,0.0095,0.0092,0.0054,0.0082,0.0113,0.0058,0.0056,0.0054,0.0005,-0.0001,0.0082,0.0082,0.0082,0,0.0245,0.0272,0.0257,0.0273,0.028,0.0254,0.0276,0.0262,0.0248,0.0247,0.023,0.0178,0.0145,0.0119,0.0119,0.0096,0.0064,0.0108,0.006,0.0058,0.0056,0.0006,-0.0002,0.0084,0.0084,0.0084,0.0083,0,0.028,0.0302,0.031,0.0328,0.0327,0.0341,0.0323,0.0322,0.0308,0.0292,0.0265,0.0213,0.0186,0.0159,0.014,0.0108,0.0089,0.0068,0.0058,0.0056,0.0003,-0.0005,0.0086,0.0086,0.0085,0.0085,0,0,0.0304,0.0334,0.0338,0.0364,0.0363,0.0372,0.0376,0.0377,0.0387,0.0342,0.0343,0.0281,0.025,0.0228,0.0184,0.0135,0.0078,0.0104,0.01,0.006,-0.0039,-0.0038,-0.0048,0.0047,0.0046,0.0045,-0.0072,0,0.0342,0.0396,0.0397,0.0443,0.0469,0.0454,0.0467,0.0459,0.0433,0.0421,0.0349,0.0329,0.0274,0.0262,0.0201,0.0117,0.006,0.0112,-0.0034,-0.0038,-0.0034,-0.0056,0.0042,-0.0079,-0.0081,-0.0082,-0.0083,0,0.0383,0.0414,0.0477,0.0523,0.0533,0.0559,0.0581,0.0587,0.0551,0.0532,0.0481,0.0422,0.035,0.03,0.0144,0.0181,0.0083,0.0005,-0.0003,-0.0012,-0.0052,-0.0076,-0.0099,-0.0098,-0.0096,-0.0095,-0.0094,0,0.042,0.0473,0.0533,0.0547,0.0586,0.062,0.0642,0.0629,0.0646,0.0603,0.06,0.0492,0.045,0.0309,0.0141,0.0145,-0.0039,-0.0061,-0.0159,-0.016,-0.0139,-0.0136,-0.0175,-0.0174,-0.0174,-0.0174,-0.0174,0,0.0464,0.051,0.0564,0.0596,0.0673,0.068,0.0746,0.0746,0.0747,0.0767,0.0667,0.0645,0.0451,0.0318,0.016,-0.0025,-0.0034,-0.015,-0.019,-0.0125,-0.0119,-0.0147,-0.0142,-0.0178,-0.0177,-0.0176,-0.0176,0,0.0491,0.053,0.06,0.0666,0.0698,0.0753,0.0832,0.0867,0.0862,0.0882,0.0875,0.0758,0.0594,0.038,0.0146,0.0014,-0.0172,-0.024,-0.0153,-0.0186,-0.0261,-0.0253,-0.0348,-0.0349,-0.035,-0.0351,-0.0351,0,0.0513,0.055,0.0652,0.0708,0.0749,0.0833,0.0895,0.0927,0.0964,0.0947,0.0959,0.0819,0.0712,0.0384,0.0158,-0.0153,-0.0198,-0.03,-0.0279,-0.025,-0.0279,-0.027,-0.0261,-0.0352,-0.0353,-0.0353,-0.0353,0,0.0531,0.0572,0.0632,0.0753,0.084,0.0931,0.1021,0.1057,0.1085,0.108,0.1026,0.0853,0.0667,0.0404,0.0156,-0.0067,-0.0235,-0.0309,-0.0309,-0.029,-0.0256,-0.0282,-0.0273,-0.0356,-0.0355,-0.0355,-0.0355,0,0.0543,0.0589,0.0677,0.0786,0.0895,0.0996,0.1044,0.1094,0.1131,0.1113,0.1092,0.0886,0.077,0.0448,0.0219,-0.0001,-0.005,-0.0124,-0.0134,-0.0134,-0.0039,0.0038,-0.0003,0,0,0,0,0,0.055,0.0607,0.0701,0.0824,0.0933,0.1006,0.1111,0.1147,0.1176,0.1152,0.1126,0.0952,0.0629,0.0492,0.0275,0.0193,-0.01,-0.007,-0.0193,-0.0371,-0.0368,-0.0293,0,0,0,0,0,0,0.0556,0.0639,0.0694,0.0834,0.0923,0.1048,0.1119,0.1147,0.1138,0.1132,0.097,0.0893,0.0583,0.0752,0.0269,0.0203,0.0093,-0.0217,-0.0222,-0.0373,-0.037,-0.0367,-0.029,0,0,0,0,0]}]]